TimeCST,TemperatureF,Dew PointF,Humidity,Sea Level PressureIn,VisibilityMPH,Wind Direction,Wind SpeedMPH,Gust SpeedMPH,PrecipitationIn,Events,Conditions,WindDirDegrees,DateUTC
6:00 AM,69,63,75,29.86,12,NNE,5.8,,,,,20,2014-03-04 12:00:00
6:00 AM,69.8,62.6,78,29.85,-9999.0,NNE,5.8,-,N/A,,Clear,20,2014-03-04 12:00:00
7:00 AM,77.0,64.4,65,29.86,-9999.0,SSW,4.6,-,N/A,,Clear,210,2014-03-04 13:00:00
8:00 AM,78.8,64.4,61,29.88,-9999.0,SSW,5.8,-,N/A,,Clear,210,2014-03-04 14:00:00
9:00 AM,85,63,37,29.90,12,ENE,5.8,,,,Overcast,60,2014-03-04 15:00:00
9:00 AM,84.2,62.6,48,29.89,-9999.0,ENE,5.8,-,N/A,,Clear,60,2014-03-04 15:00:00
10:00 AM,87.8,60.8,40,29.89,-9999.0,NNE,8.1,-,N/A,,Clear,30,2014-03-04 16:00:00
11:00 AM,89.6,60.8,38,29.88,-9999.0,East,13.8,-,N/A,,Clear,100,2014-03-04 17:00:00
12:00 PM,90,61,28,29.87,12,ENE,11.5,,,,Overcast,70,2014-03-04 18:00:00
12:00 PM,89.6,60.8,38,29.85,-9999.0,ENE,11.5,-,N/A,,Clear,70,2014-03-04 18:00:00
1:00 PM,91.4,60.8,36,29.82,-9999.0,East,11.5,-,N/A,,Clear,80,2014-03-04 19:00:00
2:00 PM,91.4,60.8,36,29.79,-9999.0,East,9.2,-,N/A,,Clear,100,2014-03-04 20:00:00
3:00 PM,91,62,28,29.78,12,ENE,9.2,,,,Overcast,70,2014-03-04 21:00:00
3:00 PM,91.4,60.8,36,29.77,6.2,ENE,9.2,-,N/A,,Overcast,70,2014-03-04 21:00:00
4:00 PM,86.0,68.0,55,29.77,6.2,North,6.9,-,N/A,,Overcast,10,2014-03-04 22:00:00
5:00 PM,84.2,68.0,58,29.78,-9999.0,NW,4.6,-,N/A,,Clear,310,2014-03-04 23:00:00
6:00 PM,82,70,58,29.81,12,NW,3.5,,,,Overcast,320,2014-03-05 00:00:00
6:00 PM,80.6,69.8,70,29.80,-9999.0,NW,3.5,-,N/A,,Clear,320,2014-03-05 00:00:00
7:00 PM,80.6,71.6,74,29.81,-9999.0,West,5.8,-,N/A,,Clear,280,2014-03-05 01:00:00
8:00 PM,78.8,71.6,78,29.84,-9999.0,Calm,Calm,-,N/A,,Clear,0,2014-03-05 02:00:00